Location: Bu�n Treun
(12.1333°N, 108.3167°E)
Time: 23:38:36
(UTC+00:00)

CZ-2C R/B - Pass Details

Date: 13 July 2020
Orbit: 703 x 909 km, 98.1° (Epoch: 14 August)

Event Time Altitude Azimuth Distance (km) Brightness Sun altitude
Exits shadow 12:12:42 - 164° (SSE) 3,014 5.7 -13.5°
Reaches altitude 10° 12:13:52 10° 163° (SSE) 2,567 5.3 -13.7°
Maximum altitude 12:19:36 77° 78° (ENE) 901 3.2 -15.0°
Drops below altitude 10° 12:25:07 10° 352° (N) 2,470 6.1 -16.2°
Sets 12:27:26 0° 351° (N) 3,376 6.9 -16.7°
